sat.trackr.live / text

‹ back to catalog

STARLINK-31489

NORAD 59300 · 2024-056E

PAYLOAD ACTIVE UNKNOWN

§ Identity

Operator
Country
US
Launch date
2024-03-24
Launch site
AFETR
Launch vehicle
Mass (kg)
RCS (m²)

Purposes: comms

External: N2YO · Heavens-Above · Gunter

§ Orbital elements

Epoch: 2026-05-25T04:04:58.488096Z

Period
94.27 min
Inclination
43.0010°
Eccentricity
0.0001545
Mean motion
15.27594693 rev/d
Perigee alt
481.9 km
Apogee alt
484.1 km
Semi-major
6,861.1 km
B*
2.2871e-4
RAAN
158.5637°
Arg perigee
291.9199°
Mean anomaly
68.1488°
Rev number
12,285

§ Raw data

STARLINK-314891 59300U 24056E   26145.17012139  .00006039  00000+0  22871-3 0  99962 59300  43.0010 158.5637 0001545 291.9199  68.1488 15.27594693122851

JSON: /api/v1/satellites/59300 · /tle

For live sub-satellite position, see the globe view (requires WebGL).

§ Visibility from observer

Set your observer location to see the next 7 days of passes ≥ 10°. The values pass through the URL so the page stays shareable.

No JS? Fill the form by hand. The geolocation button needs JavaScript.